Home   Weather   Gonzales   Past weeks
Flag for USA

Past Weather in Gonzales, Louisiana, USA — Yesterday and Last 2 Weeks

Now
75 °F

Broken clouds.


Feels Like: 75 °F
Forecast: 78 / 56 °F
Wind: 14 mph from Southwest

Location: Baton Rouge Metropolitan - Ryan Field

Current Time: Mar 31, 2020 at 9:17:49 am

Latest Report: Mar 31, 2020 at 7:53 am


Visibility: 8 mi

Pressure: 29.80 "Hg

Humidity: 85%

Dew Point: 70 °F

Location of GonzalesLocation

Past Weather in Gonzales — Graph

°F

Gonzales Temperature Yesterday

Maximum temperature yesterday: 82 °F (at 2:53 pm)
Minimum temperature yesterday: 63 °F (at 3:53 am)
Average temperature yesterday: 72 °F

High & Low Weather Summary for the Past Weeks

 TemperatureHumidityPressure
High88 °F (Mar 28, 2:53 pm)97% (Mar 26, 1:53 am)30.33 "Hg (Mar 26, 1:53 am)
Low59 °F (Mar 16, 7:53 am)31% (Mar 29, 1:53 pm)29.78 "Hg (Mar 31, 5:53 am)
Average73 °F78%30.06 "Hg
* Reported Mar 16 7:53 am — Mar 31 7:53 am, Gonzales. Weather by CustomWeather, © 2020

Note: Actual official high and low records may vary slightly from our data, if they occured in-between our weather recording intervals... More about our weather records

Gonzales Weather History for the Previous 24 Hours

Scroll right to see more
 ConditionsComfort  
Time TempWeatherWind HumidityBarometerVisibility
7:53 am
Tue, Mar 31
75 °FBroken clouds.14 mph85%29.80 "Hg8 mi
6:53 am76 °FMostly cloudy.16 mph82%29.78 "Hg10 mi
5:53 am75 °FMostly cloudy.13 mph85%29.78 "Hg10 mi
4:53 am75 °FOvercast.18 mph85%29.79 "Hg10 mi
3:53 am75 °FOvercast.18 mph85%29.80 "Hg10 mi
3:33 am75 °FMostly cloudy.17 mph85%29.81 "Hg10 mi
3:07 am75 °FPassing clouds.14 mph85%29.82 "Hg10 mi
2:53 am75 °FPassing clouds.14 mph85%29.82 "Hg10 mi
1:53 am74 °FPassing clouds.16 mph88%29.83 "Hg10 mi
12:53 am74 °FPartly cloudy.8 mph85%29.88 "Hg10 mi
11:53 pm
Mon, Mar 30
75 °FPartly cloudy.13 mph82%29.89 "Hg10 mi
10:53 pm75 °FPassing clouds.12 mph79%29.90 "Hg10 mi
10:36 pm75 °FPartly cloudy.10 mph79%29.91 "Hg10 mi
10:14 pm75 °FPassing clouds.9 mph79%29.92 "Hg10 mi
9:53 pm75 °FPassing clouds.7 mph79%29.93 "Hg10 mi
8:53 pm75 °FPassing clouds.8 mph79%29.92 "Hg10 mi
7:53 pm75 °FPassing clouds.8 mph76%29.93 "Hg10 mi
6:53 pm77 °FScattered clouds.12 mph71%29.92 "Hg10 mi
5:53 pm78 °FSunny.13 mph66%29.92 "Hg10 mi
4:53 pm80 °FScattered clouds.10 mph60%29.95 "Hg10 mi
3:53 pm81 °FScattered clouds.9 mph56%29.98 "Hg10 mi
2:53 pm82 °FSunny.12 mph51%30.01 "Hg10 mi
1:53 pm79 °FSunny.12 mph50%30.05 "Hg10 mi
12:53 pm78 °FPassing clouds.12 mph48%30.09 "Hg10 mi
11:53 am77 °FSunny.10 mph47%30.13 "Hg10 mi
10:53 am75 °FSunny.9 mph48%30.14 "Hg10 mi
9:53 am71 °FSunny.14 mph53%30.12 "Hg10 mi
Weather by CustomWeather, © 2020

See weather overview

Advertising